| time (UTC) | temp F | wind direction | speed MPH | gust MPH | rain 1hr in | rain 24hr in | rain mn in | humidity % | barometer mb |
| 20260507152515 | 73 | 42 | 10.0 | 16.0 | 0.00 | 0.00 | 0.00 | 60 | 1016.0 |
| 20260507151518 | 73 | 2 | 10.0 | 19.0 | 0.00 | 0.00 | 0.00 | 58 | 1016.0 |
| 20260507150518 | 74 | 30 | 3.0 | 14.0 | 0.00 | 0.00 | 0.00 | 58 | 1016.2 |
| 20260507145519 | 74 | 16 | 4.0 | 10.0 | 0.00 | 0.00 | 0.00 | 57 | 1016.0 |
| 20260507144515 | 75 | 360 | 4.0 | 9.0 | 0.00 | 0.00 | 0.00 | 55 | 1016.2 |
| 20260507143515 | 75 | 17 | 4.0 | 10.0 | 0.00 | 0.00 | 0.00 | 53 | 1016.2 |
| 20260507142515 | 75 | 15 | 3.0 | 9.0 | 0.00 | 0.00 | 0.00 | 53 | 1016.3 |
| 20260507141516 | 76 | 9 | 3.0 | 9.0 | 0.00 | 0.00 | 0.00 | 52 | 1016.4 |
| 20260507140516 | 76 | 60 | 4.0 | 9.0 | 0.00 | 0.00 | 0.00 | 50 | 1016.1 |
| 20260507135518 | 76 | 19 | 3.0 | 8.0 | 0.00 | 0.00 | 0.00 | 49 | 1016.3 |
| 20260507134517 | 77 | 17 | 4.0 | 10.0 | 0.00 | 0.00 | 0.00 | 48 | 1016.3 |
| 20260507133516 | 77 | 14 | 3.0 | 8.0 | 0.00 | 0.00 | 0.00 | 46 | 1016.3 |
| 20260507132515 | 77 | 7 | 3.0 | 6.0 | 0.00 | 0.00 | 0.00 | 45 | 1016.1 |
| 20260507131516 | 77 | 37 | 4.0 | 8.0 | 0.00 | 0.00 | 0.00 | 45 | 1016.3 |
| 20260507130515 | 77 | 42 | 3.0 | 8.0 | 0.00 | 0.00 | 0.00 | 45 | 1016.3 |
| 20260507125518 | 76 | 4 | 2.0 | 6.0 | 0.00 | 0.00 | 0.00 | 47 | 1016.5 |
| 20260507124516 | 75 | 15 | 3.0 | 8.0 | 0.00 | 0.00 | 0.00 | 50 | 1016.7 |
| 20260507123516 | 75 | 359 | 2.0 | 4.0 | 0.00 | 0.00 | 0.00 | 52 | 1016.8 |
| 20260507122517 | 74 | 18 | 2.0 | 5.0 | 0.00 | 0.00 | 0.00 | 50 | 1016.8 |
| 20260507121515 | 74 | 2 | 2.0 | 6.0 | 0.00 | 0.00 | 0.00 | 46 | 1016.9 |
| 20260507120515 | 75 | 22 | 3.0 | 6.0 | 0.00 | 0.00 | 0.00 | 45 | 1017.0 |
| 20260507115517 | 75 | 10 | 2.0 | 9.0 | 0.00 | 0.00 | 0.00 | 44 | 1017.0 |
| 20260507114538 | 75 | 17 | 3.0 | 8.0 | 0.00 | 0.00 | 0.00 | 45 | 1017.0 |
| 20260507113516 | 74 | 24 | 3.0 | 7.0 | 0.00 | 0.00 | 0.00 | 46 | 1017.1 |
| 20260507112516 | 74 | 38 | 1.0 | 5.0 | 0.00 | 0.00 | 0.00 | 47 | 1017.2 |
| 20260507111517 | 73 | 38 | 3.0 | 5.0 | 0.00 | 0.00 | 0.00 | 44 | 1017.4 |
| 20260507110515 | 73 | 357 | 2.0 | 4.0 | 0.00 | 0.00 | 0.00 | 48 | 1017.5 |
| 20260507105518 | 74 | 7 | 1.0 | 4.0 | 0.00 | 0.00 | 0.00 | 48 | 1017.5 |
| 20260507104518 | 74 | 26 | 4.0 | 6.0 | 0.00 | 0.00 | 0.00 | 45 | 1017.4 |
| 20260507103518 | 74 | 16 | 2.0 | 5.0 | 0.00 | 0.00 | 0.00 | 47 | 1017.2 |
| 20260507102537 | 73 | 1 | 3.0 | 9.0 | 0.00 | 0.00 | 0.00 | 50 | 1017.1 |
| 20260507101517 | 73 | 10 | 3.0 | 8.0 | 0.00 | 0.00 | 0.00 | 55 | 1017.0 |
| 20260507100515 | 73 | 344 | 2.0 | 5.0 | 0.00 | 0.00 | 0.00 | 58 | 1017.2 |
| 20260507095516 | 72 | 355 | 1.0 | 3.0 | 0.00 | 0.00 | 0.00 | 58 | 1017.2 |
| 20260507094515 | 71 | 0 | 1.0 | 3.0 | 0.00 | 0.00 | 0.00 | 63 | 1017.2 |
| 20260507093515 | 70 | 27 | 1.0 | 4.0 | 0.00 | 0.00 | 0.00 | 64 | 1017.4 |
| 20260507092517 | 70 | 13 | 1.0 | 4.0 | 0.00 | 0.00 | 0.00 | 64 | 1017.4 |
| 20260507091518 | 70 | 11 | 2.0 | 4.0 | 0.00 | 0.00 | 0.00 | 63 | 1017.3 |
| 20260507090538 | 70 | 10 | 2.0 | 6.0 | 0.00 | 0.00 | 0.00 | 63 | 1017.2 |
| 20260507085515 | 70 | 311 | 1.0 | 5.0 | 0.00 | 0.00 | 0.00 | 63 | 1017.0 |
| 20260507084515 | 71 | 347 | 2.0 | 5.0 | 0.00 | 0.00 | 0.00 | 62 | 1016.9 |
| 20260507083518 | 71 | 352 | 2.0 | 5.0 | 0.00 | 0.00 | 0.00 | 63 | 1017.0 |
| 20260507082517 | 70 | 39 | 2.0 | 5.0 | 0.00 | 0.00 | 0.00 | 63 | 1016.9 |
| 20260507081517 | 70 | 336 | 1.0 | 3.0 | 0.00 | 0.00 | 0.00 | 64 | 1017.0 |
| 20260507080517 | 69 | 350 | 1.0 | 4.0 | 0.00 | 0.00 | 0.00 | 64 | 1016.9 |
| 20260507075537 | 68 | 334 | 2.0 | 5.0 | 0.00 | 0.00 | 0.00 | 65 | 1017.0 |
| 20260507074518 | 68 | 360 | 2.0 | 5.0 | 0.00 | 0.00 | 0.00 | 66 | 1016.9 |
| 20260507073516 | 67 | 318 | 2.0 | 5.0 | 0.00 | 0.00 | 0.00 | 66 | 1016.7 |
| 20260507072538 | 67 | 304 | 1.0 | 2.0 | 0.00 | 0.00 | 0.00 | 66 | 1016.6 |
| 20260507071515 | 66 | 337 | 1.0 | 3.0 | 0.00 | 0.00 | 0.00 | 68 | 1016.8 |
| 20260507070516 | 65 | 306 | 2.0 | 6.0 | 0.00 | 0.00 | 0.00 | 68 | 1016.9 |
| 20260507065516 | 65 | 288 | 1.0 | 3.0 | 0.00 | 0.00 | 0.00 | 69 | 1017.0 |
| 20260507064515 | 65 | 0 | 2.0 | 3.0 | 0.00 | 0.00 | 0.00 | 69 | 1017.1 |
| 20260507063518 | 65 | 304 | 1.0 | 3.0 | 0.00 | 0.00 | 0.00 | 67 | 1017.2 |
| 20260507062517 | 65 | 305 | 0.0 | 2.0 | 0.00 | 0.00 | 0.00 | 68 | 1017.1 |
| 20260507061516 | 64 | 360 | 1.0 | 3.0 | 0.00 | 0.00 | 0.00 | 69 | 1017.1 |
| 20260507060517 | 64 | 0 | 1.0 | 2.0 | 0.00 | 0.00 | 0.00 | 71 | 1017.0 |
| 20260507055517 | 63 | 52 | 0.0 | 3.0 | 0.00 | 0.00 | 0.00 | 73 | 1016.8 |
| 20260507054515 | 62 | 0 | 1.0 | 3.0 | 0.00 | 0.00 | 0.00 | 73 | 1016.8 |
| 20260507053518 | 61 | 0 | 1.0 | 3.0 | 0.00 | 0.00 | 0.00 | 73 | 1016.8 |
| 20260507052518 | 61 | 0 | 2.0 | 5.0 | 0.00 | 0.00 | 0.00 | 73 | 1016.6 |
| 20260507051517 | 61 | 0 | 1.0 | 4.0 | 0.00 | 0.00 | 0.00 | 74 | 1016.5 |
| 20260507050518 | 60 | 0 | 2.0 | 3.0 | 0.00 | 0.00 | 0.00 | 74 | 1016.3 |
| 20260507045517 | 60 | 0 | 2.0 | 3.0 | 0.00 | 0.00 | 0.00 | 73 | 1016.3 |
| 20260507044517 | 60 | 0 | 1.0 | 3.0 | 0.00 | 0.00 | 0.00 | 73 | 1016.2 |
| 20260507043519 | 60 | 0 | 1.0 | 3.0 | 0.00 | 0.00 | 0.00 | 72 | 1016.1 |
| 20260507042517 | 59 | 0.0 | 0.0 | 0.00 | 0.00 | 0.00 | 71 | 1016.2 | |
| 20260507041516 | 58 | 1 | 1.0 | 2.0 | 0.00 | 0.00 | 0.00 | 71 | 1016.1 |
| 20260507040538 | 58 | 1 | 1.0 | 4.0 | 0.00 | 0.00 | 0.00 | 71 | 1016.0 |
| 20260507035517 | 57 | 360 | 2.0 | 6.0 | 0.00 | 0.00 | 0.00 | 70 | 1016.0 |
| 20260507034517 | 58 | 0 | 2.0 | 5.0 | 0.00 | 0.00 | 0.00 | 69 | 1015.9 |
| 20260507033516 | 58 | 2 | 1.0 | 3.0 | 0.00 | 0.00 | 0.00 | 71 | 1015.9 |
| 20260507032518 | 58 | 1 | 1.0 | 3.0 | 0.00 | 0.00 | 0.00 | 73 | 1015.9 |
| 20260507031517 | 57 | 2 | 2.0 | 8.0 | 0.00 | 0.00 | 0.00 | 73 | 1015.9 |
| 20260507030538 | 56 | 0 | 3.0 | 9.0 | 0.00 | 0.00 | 0.00 | 74 | 1015.8 |
| 20260507025516 | 56 | 0 | 4.0 | 8.0 | 0.00 | 0.00 | 0.00 | 73 | 1015.8 |
| 20260507024536 | 56 | 360 | 3.0 | 6.0 | 0.00 | 0.00 | 0.00 | 73 | 1015.8 |
| 20260507023517 | 56 | 0 | 2.0 | 6.0 | 0.00 | 0.00 | 0.00 | 74 | 1015.7 |
| 20260507022517 | 56 | 360 | 4.0 | 8.0 | 0.00 | 0.00 | 0.00 | 73 | 1015.7 |
| 20260507021638 | 56 | 0 | 2.0 | 5.0 | 0.00 | 0.00 | 0.00 | 72 | 1015.6 |
| 20260507020516 | 57 | 1 | 2.0 | 5.0 | 0.00 | 0.00 | 0.00 | 72 | 1015.7 |
| 20260507015518 | 57 | 360 | 4.0 | 8.0 | 0.00 | 0.00 | 0.00 | 71 | 1015.6 |
| 20260507014518 | 58 | 360 | 3.0 | 6.0 | 0.00 | 0.00 | 0.00 | 71 | 1015.3 |
| 20260507013517 | 57 | 360 | 4.0 | 8.0 | 0.00 | 0.00 | 0.00 | 72 | 1015.1 |
| 20260507012516 | 57 | 0 | 6.0 | 10.0 | 0.00 | 0.00 | 0.00 | 70 | 1015.1 |
| 20260507011538 | 59 | 0 | 4.0 | 8.0 | 0.00 | 0.00 | 0.00 | 67 | 1015.0 |
| 20260507010516 | 59 | 0 | 2.0 | 5.0 | 0.00 | 0.00 | 0.00 | 67 | 1015.0 |
| 20260507005516 | 59 | 0 | 2.0 | 6.0 | 0.00 | 0.00 | 0.00 | 67 | 1015.1 |
| 20260507004517 | 59 | 360 | 3.0 | 8.0 | 0.00 | 0.00 | 0.00 | 67 | 1015.0 |
| 20260507003518 | 58 | 0 | 3.0 | 8.0 | 0.00 | 0.00 | 0.00 | 69 | 1015.0 |
| 20260507002518 | 58 | 0 | 3.0 | 9.0 | 0.00 | 0.00 | 0.00 | 69 | 1015.0 |
| 20260507001538 | 58 | 0 | 2.0 | 5.0 | 0.00 | 0.00 | 0.00 | 69 | 1014.9 |
| 20260507000518 | 59 | 0 | 1.0 | 4.0 | 0.00 | 0.00 | 0.00 | 68 | 1015.0 |
| 20260506235558 | 59 | 0 | 2.0 | 5.0 | 0.00 | 0.00 | 0.00 | 68 | 1015.2 |
| 20260506234516 | 59 | 0 | 2.0 | 6.0 | 0.00 | 0.00 | 0.00 | 68 | 1015.3 |
| 20260506233538 | 58 | 360 | 6.0 | 10.0 | 0.00 | 0.00 | 0.00 | 69 | 1015.5 |
| 20260506232518 | 59 | 0 | 5.0 | 10.0 | 0.00 | 0.00 | 0.00 | 68 | 1015.6 |
| 20260506231518 | 59 | 0 | 4.0 | 9.0 | 0.00 | 0.00 | 0.00 | 67 | 1015.6 |
| 20260506230538 | 59 | 360 | 4.0 | 9.0 | 0.00 | 0.00 | 0.00 | 67 | 1015.6 |
| 20260506225516 | 60 | 360 | 4.0 | 6.0 | 0.00 | 0.00 | 0.00 | 66 | 1015.6 |
| 20260506224516 | 60 | 0 | 3.0 | 5.0 | 0.00 | 0.00 | 0.00 | 65 | 1015.6 |
| 20260506223517 | 60 | 357 | 4.0 | 6.0 | 0.00 | 0.00 | 0.00 | 65 | 1015.7 |
| 20260506222518 | 60 | 5 | 3.0 | 8.0 | 0.00 | 0.00 | 0.00 | 67 | 1015.6 |
| 20260506221518 | 60 | 30 | 4.0 | 9.0 | 0.00 | 0.00 | 0.00 | 68 | 1015.6 |
| 20260506220558 | 59 | 166 | 5.0 | 10.0 | 0.00 | 0.00 | 0.00 | 68 | 1015.5 |
| 20260506215536 | 61 | 160 | 3.0 | 7.0 | 0.00 | 0.00 | 0.00 | 66 | 1015.6 |
| 20260506214516 | 61 | 351 | 3.0 | 6.0 | 0.00 | 0.00 | 0.00 | 65 | 1015.7 |
| 20260506213538 | 60 | 69 | 3.0 | 10.0 | 0.00 | 0.00 | 0.00 | 67 | 1015.9 |
| 20260506212518 | 60 | 298 | 6.0 | 10.0 | 0.00 | 0.00 | 0.00 | 68 | 1015.9 |
| 20260506211516 | 60 | 282 | 4.0 | 10.0 | 0.00 | 0.00 | 0.00 | 68 | 1015.7 |
| 20260506210538 | 60 | 305 | 4.0 | 8.0 | 0.00 | 0.00 | 0.00 | 68 | 1015.7 |
| 20260506205517 | 61 | 313 | 4.0 | 6.0 | 0.00 | 0.00 | 0.00 | 67 | 1015.6 |
| 20260506204516 | 62 | 317 | 4.0 | 7.0 | 0.00 | 0.00 | 0.00 | 65 | 1015.5 |
| 20260506203536 | 62 | 310 | 5.0 | 10.0 | 0.00 | 0.00 | 0.00 | 65 | 1015.5 |
| 20260506202515 | 62 | 187 | 5.0 | 8.0 | 0.00 | 0.00 | 0.00 | 66 | 1015.3 |
| 20260506201517 | 62 | 150 | 3.0 | 7.0 | 0.00 | 0.00 | 0.00 | 67 | 1015.3 |
| 20260506200517 | 62 | 258 | 4.0 | 6.0 | 0.00 | 0.00 | 0.00 | 68 | 1015.3 |
| 20260506195557 | 62 | 357 | 4.0 | 8.0 | 0.00 | 0.00 | 0.00 | 69 | 1015.5 |
| 20260506194515 | 62 | 359 | 3.0 | 8.0 | 0.00 | 0.00 | 0.00 | 70 | 1015.5 |
| 20260506193515 | 62 | 162 | 2.0 | 5.0 | 0.00 | 0.00 | 0.00 | 71 | 1015.4 |
| 20260506192537 | 62 | 331 | 3.0 | 5.0 | 0.00 | 0.00 | 0.00 | 73 | 1015.3 |
| 20260506191515 | 62 | 263 | 1.0 | 3.0 | 0.00 | 0.00 | 0.00 | 73 | 1015.2 |
| 20260506190515 | 63 | 297 | 2.0 | 4.0 | 0.00 | 0.00 | 0.00 | 73 | 1015.0 |
| 20260506185515 | 63 | 328 | 3.0 | 4.0 | 0.00 | 0.00 | 0.00 | 73 | 1014.9 |
| 20260506184515 | 64 | 336 | 2.0 | 4.0 | 0.00 | 0.00 | 0.00 | 73 | 1014.8 |
| 20260506183515 | 65 | 315 | 2.0 | 3.0 | 0.00 | 0.00 | 0.00 | 71 | 1014.7 |
| 20260506182516 | 67 | 355 | 2.0 | 4.0 | 0.00 | 0.00 | 0.00 | 69 | 1014.5 |
| 20260506181515 | 68 | 202 | 2.0 | 5.0 | 0.00 | 0.00 | 0.00 | 68 | 1014.2 |
| 20260506180517 | 68 | 6 | 1.0 | 3.0 | 0.00 | 0.00 | 0.00 | 66 | 1014.1 |
| 20260506175517 | 69 | 17 | 0.0 | 2.0 | 0.00 | 0.00 | 0.00 | 66 | 1014.0 |
| 20260506174515 | 69 | 5 | 1.0 | 2.0 | 0.00 | 0.00 | 0.00 | 66 | 1014.0 |
| 20260506173515 | 69 | 11 | 0.0 | 2.0 | 0.00 | 0.00 | 0.00 | 65 | 1013.9 |
| 20260506172517 | 69 | 9 | 0.0 | 3.0 | 0.00 | 0.00 | 0.00 | 64 | 1013.8 |
| 20260506171515 | 70 | 7 | 1.0 | 3.0 | 0.00 | 0.00 | 0.00 | 64 | 1013.7 |
| 20260506170515 | 70 | 15 | 2.0 | 4.0 | 0.00 | 0.00 | 0.00 | 63 | 1013.7 |
| 20260506165515 | 70 | 11 | 2.0 | 6.0 | 0.00 | 0.00 | 0.00 | 62 | 1013.7 |
| 20260506164515 | 72 | 0 | 1.0 | 3.0 | 0.00 | 0.00 | 0.00 | 61 | 1013.7 |
| 20260506163515 | 72 | 0 | 2.0 | 4.0 | 0.00 | 0.00 | 0.00 | 60 | 1013.6 |
| 20260506162517 | 73 | 5 | 2.0 | 5.0 | 0.00 | 0.00 | 0.00 | 59 | 1013.7 |
| 20260506161517 | 74 | 15 | 2.0 | 6.0 | 0.00 | 0.00 | 0.00 | 59 | 1013.7 |
| 20260506160515 | 74 | 345 | 2.0 | 8.0 | 0.00 | 0.00 | 0.00 | 59 | 1013.6 |
| 20260506155515 | 76 | 350 | 3.0 | 6.0 | 0.00 | 0.00 | 0.00 | 56 | 1013.6 |
| 20260506154515 | 77 | 4 | 3.0 | 9.0 | 0.00 | 0.00 | 0.00 | 54 | 1013.6 |
| 20260506153516 | 77 | 348 | 3.0 | 8.0 | 0.00 | 0.00 | 0.00 | 55 | 1013.6 |